C/2016 A1 ( PanSTARRS )

Japanese version
Home page
Updated on December 24, 2019

---------------------------------------------------------------------

* Profile

Discovery Date January 1, 2016
Magnitude 19.3 mag
Discoverer Pan-STARRS 1 telescope (Haleakala)

* Pictures

* Orbital Elements

Epoch 2017 Nov. 23.0 TT = JDT 2458080.5
T 2017 Nov. 23.37348 TT                                 Williams
q   5.3277612            (2000.0)            P               Q
z  -0.0003723      Peri.   10.32044     -0.53513170     +0.51121114
 +/-0.0000003      Node   128.17453     +0.70123233     -0.17512664
e   1.0019837      Incl.  121.18571     +0.47107035     +0.84142369
From 2004 observations 2016 Jan. 1-2019 Dec. 2, mean residual 0".5.

* Finding Charts

* Magnitudes Graph

        m1 = 1.2 + 5 log d + 15.0 log r

---------------------------------------------------------------------

The orbital elements are published on M.P.E.C. 2019-X94.
The charts are made with StellaNavigator Ver.10 (AstroArts).
The magnitudes graphs are made with Comet for Windows.

---------------------------------------------------------------------

Copyright(C) Seiichi Yoshida (comet@aerith.net). All rights reserved.